www.pogodaiklimat.ru

Погода и климат >> Архив погоды >> Австралия >> Thargomindah Airport


ПОГОДА в Thargomindah Airport

  • Прогноз погоды в Thargomindah Airport
  • Монитор погоды в Thargomindah Airport
  • Климат города

АРХИВ ПОГОДЫ в Thargomindah Airport

Время (UTC), дата Ветер
(напр.,м/с)
 
Видим.   Явления Облачность Т
(С)
Тd
(С)
f
(%)
Тe
(С)
Тes
(С)
Комфортность P
(гПа)
Po
(гПа)
Тmin
(С)
Tmax
(С)
R
(мм)
R24
(мм)
S
(см)
05 23.04 ЮВ 2 н/о н/о +28.3 +12.2 37 +29 +29 жарко 1017.3 1002.1
06 23.04 ЮВ 2 н/о н/о +27.8 +11.8 37 +29 +29 жарко 1017.2 1001.8
08 23.04 В 7 н/о {туман} н/о +22.2 +16.2 69 +26 +26 душно 1017.9 1002.7
09 23.04 ЮВ 3 н/о н/о +22.5 +17.2 72 +27 +27 душно 1018.6 1003.2
11 23.04 ЮВ 3 н/о {туман} н/о +21.9 +18.3 80 +27 +27 душно 1019.6 1004.3
12 23.04 ЮВ 3 н/о н/о +21.6 +16.8 74 +26 +26 душно 1019.6 1004.2
14 23.04 В 3 н/о н/о +20.1 +16.3 79 +23 +23 комфорт 1019.1 1003.8 +28.9
15 23.04 ЮВ 2 н/о н/о +19.6 +16.3 81 +22 +22 комфорт 1018.7 1003.3
17 23.04 В 2 н/о н/о +18.2 +16.0 87 +19 +19 1017.7 1002.5
18 23.04 ЮВ 2 н/о н/о +18.0 +16.0 88 +19 +19 1017.8 1002.4
20 23.04 В 2 н/о {туман} н/о +17.2 +15.4 89 +17 +17 1017.7 1002.5
21 23.04 В 2 н/о н/о +17.0 +15.3 90 +17 +17 1018.4 1003.0
23 23.04 В 3 н/о {туман} н/о +22.7 +14.8 61 +26 +26 жарко 1018.7 1003.4
00 24.04 СВ 3 н/о н/о +25.2 +13.4 48 +27 +27 жарко 1018.7 1003.3
02 24.04 ЮЗ 2 н/о н/о +28.9 +11.0 33 +29 +29 жарко 1017.0 1001.8 +16.9
03 24.04 СВ 2 н/о н/о +29.4 +10.0 30 +29 +29 жарко 1016.0 1000.6
05 24.04 ЮВ 3 н/о н/о +30.8 +9.6 27 +30 +30 жарко 1013.9 998.7
06 24.04 ЮЗ 3 н/о н/о +30.8 +9.6 27 +30 +30 жарко 1013.9 998.6
08 24.04 Ю 3 н/о н/о +29.0 +10.6 32 +29 +29 жарко 1014.1 998.9
09 24.04 ЮВ 2 н/о н/о +26.9 +12.5 41 +28 +28 жарко 1014.5 999.2
11 24.04 В 3 н/о н/о +24.0 +13.2 51 +26 +26 жарко 1014.9 999.7
12 24.04 В 2 н/о н/о +22.8 +14.4 59 +26 +26 жарко 1015.0 999.7
14 24.04 В 4 н/о н/о +22.6 +12.5 53 +25 +25 комфорт 1013.8 998.6 +31.6
15 24.04 СВ 3 н/о н/о +22.3 +12.0 52 +25 +25 комфорт 1013.4 998.1
17 24.04 СВ 3 н/о н/о +22.3 +11.4 50 +24 +24 комфорт 1012.2 997.0
18 24.04 СВ 4 н/о н/о +21.7 +11.4 52 +24 +24 комфорт 1011.9 996.6
20 24.04 С 4 н/о н/о +21.1 +10.9 52 +23 +23 комфорт 1012.0 996.8
21 24.04 С 5 н/о н/о +22.2 +10.4 47 +24 +24 комфорт 1012.5 997.2
23 24.04 З 6 н/о н/о +26.2 +10.8 38 +27 +27 жарко 1014.4 999.2
00 25.04 ЮЗ 5 н/о н/о +27.0 +10.7 36 +28 +28 жарко 1014.5 999.2
02 25.04 ЮЗ 5 н/о н/о +28.1 +11.6 36 +29 +29 жарко 1013.3 998.1 +20.8
03 25.04 ЮЗ 5 н/о н/о +28.2 +12.5 38 +30 +30 жарко 1012.7 997.4
05 25.04 Ю 7 н/о н/о +26.9 +14.3 46 +29 +29 жарко 1011.4 996.3
06 25.04 Ю 6 н/о н/о +25.3 +15.6 55 +28 +28 жарко 1011.9 996.6
08 25.04 ЮЗ 2 н/о н/о +24.2 +14.6 55 +27 +27 жарко 1012.1 996.9
09 25.04 Ю 6 н/о н/о +23.1 +15.9 64 +28 +28 душно 1012.3 997.0
11 25.04 ЮЗ 4 н/о н/о +22.2 +15.1 64 +26 +26 душно 1013.0 997.8
12 25.04 ЮЗ 2 н/о н/о +21.7 +16.0 70 +25 +25 комфорт 1013.4 998.1
14 25.04 С 2 н/о н/о +20.5 +18.1 86 +25 +25 комфорт 1013.5 998.3 +29.4
15 25.04 СЗ 2 н/о н/о +20.5 +17.3 82 +25 +25 комфорт 1013.9 998.6
17 25.04 ЮЗ 4 н/о {туман} н/о +20.0 +15.4 75 +22 +22 комфорт 1014.1 998.9
18 25.04 ЮЗ 3 н/о н/о +19.1 +15.0 77 +21 +21 комфорт 1013.9 998.6
20 25.04 ЮЗ 4 н/о н/о +18.2 +12.6 70 +18 +18 1014.7 999.5
21 25.04 ЮЗ 5 н/о н/о +17.5 +11.8 69 +17 +17 1015.7 1000.3
23 25.04 ЮЗ 8 н/о н/о +19.1 +10.4 57 +19 +19 1016.7 1001.5
00 26.04 Ю 7 н/о н/о +20.2 +10.3 53 +21 +21 комфорт 1016.9 1001.5
02 26.04 ЮЗ 7 н/о н/о +21.2 +7.4 41 +22 +22 комфорт 1015.9 1000.7 +17.3
03 26.04 ЮЗ 8 н/о н/о +23.0 +5.4 32 +23 +23 комфорт 1015.1 999.8
05 26.04 ЮЗ 9 н/о н/о +21.9 +5.8 35 +22 +22 комфорт 1014.7 999.5
06 26.04 Ю 10 н/о н/о +21.2 +6.7 39 +22 +22 комфорт 1014.8 999.5
08 26.04 ЮЗ 9 н/о н/о +19.0 +3.2 35 +18 +18 1016.1 1000.9
09 26.04 ЮЗ 7 н/о н/о +18.0 +3.5 38 +17 +17 1017.4 1002.0
11 26.04 Ю 6 н/о н/о +16.0 +1.3 37 +15 +15 1019.3 1004.0
12 26.04 Ю 5 н/о н/о +15.1 +0.5 37 +14 +14 1020.1 1004.7
14 26.04 Ю 5 н/о н/о +14.0 +1.0 41 +13 +13 1020.6 1005.3 +23.7
15 26.04 Ю 4 н/о н/о +13.2 +0.9 43 +12 +12 1020.9 1005.5
17 26.04 Ю 5 н/о н/о +11.7 +1.4 49 +10 +10 1020.6 1005.3
18 26.04 Ю 4 н/о н/о +11.1 +1.6 52 +9 +9 1020.4 1005.0
20 26.04 Ю 3 н/о н/о +10.1 +2.0 57 +8 +8 1021.4 1006.1
21 26.04 Ю 5 н/о н/о +10.5 +2.4 57 +8 +8 1022.1 1006.7
23 26.04 Ю 8 н/о н/о +13.2 +0.9 43 +11 +11 1023.4 1008.1
00 27.04 Ю 7 н/о н/о +14.5 +0.7 39 +13 +13 1023.7 1008.2
02 27.04 Ю 7 н/о н/о +16.3 -0.8 31 +15 +15 1022.4 1007.1 +10.0
03 27.04 Ю 6 н/о н/о +17.7 -1.0 28 +17 +17 1021.5 1006.1
05 27.04 Ю 7 н/о н/о +18.4 -2.5 24 +18 +18 1020.5 1005.2
06 27.04 Ю 7 н/о н/о +18.7 -3.4 22 +18 +18 1020.6 1005.2
08 27.04 Ю 7 н/о н/о +17.0 -3.1 25 +16 +16 1021.4 1006.1
09 27.04 Ю 5 н/о н/о +16.1 -2.4 28 +15 +15 1022.5 1007.1
11 27.04 Ю 5 н/о н/о +14.5 -2.0 32 +13 +13 1023.6 1008.3
12 27.04 Ю 5 н/о н/о +14.2 -1.8 33 +13 +13 1023.9 1008.4
14 27.04 Ю 5 н/о н/о +12.8 -0.4 40 +11 +11 1023.5 1008.2 +19.6
15 27.04 Ю 4 н/о н/о +12.4 +0.2 43 +11 +11 1023.4 1007.9
17 27.04 Ю 5 н/о н/о +11.5 +0.6 47 +9 +9 1022.9 1007.6
18 27.04 Ю 4 н/о н/о +10.9 +0.9 50 +9 +9 1023.0 1007.6
20 27.04 Ю 4 н/о н/о +9.6 +1.3 56 +7 +7 1023.6 1008.3
21 27.04 Ю 4 н/о н/о +9.3 +1.5 58 +7 +7 1024.3 1008.8
23 27.04 ЮВ 5 н/о н/о +13.3 +2.2 47 +12 +12 1025.6 1010.2
00 28.04 ЮВ 7 н/о н/о +14.8 +2.0 42 +13 +13 1025.5 1010.0
02 28.04 ЮВ 7 н/о н/о +16.3 +0.4 34 +15 +15 1023.9 1008.6 +9.3
03 28.04 Ю 7 н/о н/о +18.0 +1.1 32 +17 +17 1023.0 1007.6
05 28.04 Ю 6 н/о н/о +19.3 +0.4 28 +19 +19 1021.4 1006.1
06 28.04 ЮВ 6 н/о н/о +19.9 +0.4 27 +20 +20 1021.2 1005.8
08 28.04 ЮВ 4 н/о н/о +18.2 +1.3 32 +18 +18 1021.3 1006.0
09 28.04 ЮВ 4 н/о н/о +17.3 +1.3 34 +17 +17 1022.1 1006.7
11 28.04 Ю 3 н/о н/о +15.3 +1.8 40 +15 +15 1022.8 1007.5
12 28.04 Ю 3 н/о н/о +14.0 +2.3 45 +13 +13 1022.6 1007.2
14 28.04 Ю 3 н/о н/о +12.8 +3.2 52 +12 +12 1022.5 1007.2 +20.5
15 28.04 Ю 4 н/о н/о +13.2 +3.3 51 +12 +12 1022.4 1007.0
17 28.04 Ю 3 н/о н/о +11.8 +3.8 58 +10 +10 1021.9 1006.6
18 28.04 Ю 3 н/о н/о +11.4 +4.2 61 +10 +10 1022.0 1006.6
20 28.04 ЮВ 4 н/о н/о +11.6 +4.8 63 +10 +10 1022.3 1007.0
21 28.04 ЮВ 5 н/о н/о +11.6 +4.8 63 +9 +9 1022.7 1007.3
23 28.04 В 5 н/о н/о +15.4 +5.0 50 +14 +14 1024.0 1008.7
00 29.04 ЮВ 6 н/о н/о +16.7 +4.4 44 +16 +16 1024.1 1008.6
02 29.04 ЮВ 4 н/о н/о +19.9 +3.6 34 +20 +20 1022.5 1007.2 +11.1
03 29.04 В 3 н/о н/о +21.6 +3.8 31 +22 +22 комфорт 1021.6 1006.2
05 29.04 ЮВ 4 н/о н/о +23.0 +3.0 27 +23 +23 комфорт 1019.8 1004.5
06 29.04 Ю 4 н/о н/о +23.1 +2.6 26 +23 +23 комфорт 1019.6 1004.2
08 29.04 ЮВ 3 н/о н/о +21.5 +2.2 28 +21 +21 комфорт 1020.1 1004.8
09 29.04 ЮВ 4 н/о н/о +20.1 +2.5 31 +21 +21 комфорт 1020.7 1005.3
11 29.04 ЮВ 3 н/о н/о +17.9 +3.0 37 +18 +18 1021.1 1005.8
12 29.04 ЮВ 3 н/о н/о +16.9 +3.2 40 +17 +17 1021.4 1006.0
14 29.04 ЮВ 3 н/о н/о +15.5 +4.2 47 +15 +15 1021.0 1005.7 +23.7
15 29.04 ЮВ 3 н/о н/о +14.4 +4.7 52 +14 +14 1020.5 1005.1
17 29.04 ЮВ 3 н/о н/о +13.1 +4.8 57 +12 +12 1019.7 1004.4
18 29.04 ЮВ 3 н/о н/о +12.7 +5.4 61 +12 +12 1019.5 1004.1
20 29.04 ЮВ 3 н/о н/о +13.0 +5.9 62 +12 +12 1020.3 1005.0
21 29.04 ЮВ 3 н/о н/о +12.6 +6.0 64 +11 +11 1020.8 1005.4
23 29.04 В 5 н/о н/о +16.7 +5.6 48 +16 +16 1021.8 1006.5
00 30.04 СВ 5 н/о н/о +19.4 +5.1 39 +20 +20 1021.5 1006.1
02 30.04 СВ 4 н/о н/о +22.7 +4.7 31 +23 +23 комфорт 1019.7 1004.4 +12.6

 

Местоположение метеостанции Thargomindah Airport (Квинсленд, Австралия): широта -27.98 долгота 143.81 высота над уровнем моря 132 м.

В архиве по умолчанию представлена погода в Thargomindah Airport за последнюю неделю. Архивные данные за месяц целиком и за предыдущие месяцы, начиная с января 2011 года, Вы можете получить, выбрав интересующий диапазон дат из раскрывающегося списка и нажав кнопку "Ввод!".

Внимание! Время в таблицах - всемирное. Для получения местного времени необходимо прибавить поправку, которая в Thargomindah Airport равна 10 ч.

Смотрите также архив погоды в соседних городах и на ближайших метеорологических станциях:

Погода в Ballera Gas Field (Квинсленд, Австралия) (206 км)
Погода в Tibooburra Airport (Новый Южный Уэльс, Австралия) (237 км)
Погода в Charleville Aero (Квинсленд, Австралия) (299 км)
Погода в Bourke Airport Aws (Новый Южный Уэльс, Австралия) (309 км)
Погода в White Cliffs Aws (Новый Южный Уэльс, Австралия) (327 км)
Погода в Moomba Airport (Южная Австралия, Австралия) (355 км)
Погода в Wilcannia Aerodrome (Новый Южный Уэльс, Австралия) (396 км)
Погода в Fowlers Gap Aws (Новый Южный Уэльс, Австралия) (401 км)
Погода в Blackall Airport (Квинсленд, Австралия) (428 км)
Погода в Cobar Mo (Новый Южный Уэльс, Австралия) (435 км)

Пояснения к столбцам:

Ветер - указаны скорость ветра в м/с - средняя за 10 мин, порывы в срок и между сроками (в фигурных скобках) и направление, откуда дует ветер: С - северный, СВ - северо-восточный, В - восточный, ЮВ - юго-восточный, Ю - южный, ЮЗ - юго-западный, З - западный, СЗ - северо-западный.
Видимость - горизонтальная дальность видимости в метрах или километрах. При видимости от 1 до 10 км при отсутствии осадков обычно наблюдается дымка, при ухудшении видимости до 1 км и менее - туман. В сухую погоду видимость может ухудшаться дымом, пылью или мглою.
Явления - указаны атмосферные явления, наблюдавшиеся в срок или в последний час перед сроком; фигурными скобками обозначены явления, наблюдавшиеся между сроками (за 1-3 часа до срока); квадратными скобками обозначены град или гололедные отложения с указанием их диаметра в мм.
Облачность - указаны через наклонную черту общая и нижняя облачность в баллах и высота нижней границы облаков в метрах; квадратными скобками обозначены формы облаков: Ci - перистые, Cs - перисто-слоистые, Cc - перисто-кучевые, Ac - высококучевые, As - высокослоистые, Sc - слоисто-кучевые, Ns - слоисто-дождевые, Cu - кучевые, Cb - кучево-дождевые. Подробнее классификацию облаков см. в Атласе облаков (PDF).
T - Температура воздуха - температура, измеренная на высоте 2 м над землей.
Td - Температура точки росы - температура, при понижении до которой содержащийся в воздухе водяной пар достигнет насыщения.
f - Относительная влажность воздуха - влажноcть воздуха, измеренная на высоте 2 м над землей.
Te - Эффективная температура - температура, которую ощущает одетый по сезону человек в тени. Характеристика душности погоды. При расчете учитывается влияние влажности воздуха и скорости ветра на теплоощущения человека.
Tes - Эффективная температура на солнце - температура, которую ощущает человек, с поправкой на солнечный нагрев. Характеристика знойности погоды. Зависит от высоты солнца над горизонтом, облачности и скорости ветра. Ночью, в пасмурную погоду, а также при ветре 12 м/с и более поправка равна нулю.
P - Атмосферное давление - приведенное к уровню моря атмосферное давление.
Po - Атмосферное давление - измеренное на уровне метеостанции атмосферное давление.
Tmin - Минимальная температура - минимум температуры воздуха на высоте 2 м над землей.
Tmax - Максимальная температура - максимум температуры воздуха на высоте 2 м над землей.
R - Количество осадков - Количество выпавших осадков за период времени, мм. При наведении курсора мыши на число - период времени, за который выпало указанное количество осадков.
R24 - Количество осадков - Количество выпавших осадков за 24 часа, мм.
S - Снежный покров - Высота снежного покрова, см. При наведении курсора мыши на число - состояние снежного покрова и степень покрытия местности в баллах.